User: anonymous   Login
Location: Theydon Bois
(51.6750°N, 0.1050°E)
Time: 04:20:32
(UTC+01:00)
Language:

Cosmos 2218 Rocket - Orbit

View from above orbital plane
View from above orbital plane
View from above satellite
View from above satellite

Ground track
Ground track

The orbit data is extracted from the following two-line orbital elements,

1 22208U 92073B   17291.53694691  .00000038  00000-0  23315-4 0  9997
2 22208  82.9148 291.1013 0035463  55.0499  70.4402 13.75138116253001
Epoch (UTC): 18 October 2017 12:53:12
Eccentricity: 0.0035463
inclination: 82.9148°
perigee height: 955 km
apogee height: 1007 km
right ascension of ascending node: 291.1013°
argument of perigee: 55.0499°
revolutions per day: 13.75138116
mean anomaly at epoch: 70.4402°
orbit number at epoch: 25300

The dashed part of the orbit path shows where the satellite is in the earth's shadow,  

DLR